Showing default

ASTRO H, 41337

Orbit data source: Space-Track

ASTRO H, 41337 is a Japanese payload satellite in LEO that was launched on Wed, 17 Feb 2016 UTC via an H-IIA 202 launch vehicle from the Tanegashima Space Center (TNSTA). Payloads include a variety of satellites, spacecraft, and rockets equipped with specific instruments for various scientific and technological missions. These include communications satellites like Starlink; space stations such as the ISS; scientific satellites like the Hubble; Earth observation satellites from companies like Planet Labs, Umbra, and HawkEye 360; GPS; miniature CubeSats for education and research; and military/defense satellites.

Loading next visibility...
ASTRO H details
Identifier
41337, 2016-012A
Orbit
LEO
Last TLE update18 hours ago
Origin
Flag of JPJAXA/ISASJ (JP / JPN)
ManufacturerTSUK/NECTF
MissionNon-operational Civil Astronomy
Bus & MotorASTRO-H, Unknown motor
Mass2,700 kg wet, 2,700 kg dry
Launch date (UTC)
2016-02-17 (9 years ago)
Launch vehicle
H-IIA 202
Launch site
Tanegashima Space Center (TNSTA)
Object type
Payload
Rocket body
Debris
Shape & HBROct Cyl + 2 Pan + 1 Truss, 14 m
Radar Cross Section16.262 m², Large (>1 m²)

Expand to show TLE details & history

TLE from 18 hours ago
0 ASTRO H
1 41337U 16012A   24338.60910414  .00006630  00000-0  43704-3 0  9999
2 41337  31.0014  83.6680 0010410  28.4016 331.7187 15.06041748482568
Epoch: 2024-12-03T14:37Z
Definitive object data (Epoch: 2024-12-03T14:37:06.597Z)
Latitude-0.00002°
Longitude151.47433°
Altitude540.476 km
Speed7.598 km/s
True Right ascension05h 34m 40s
True Declination0° 00' 00"
Sunlit
Object was in full shadow at TLE epoch
Visualization TLE readout
Latitude20.02871°
Longitude-70.47305°
Altitude547.931 km
Speed7.591 km/s
Apparent Right ascension16h 24m 31s
Apparent Declination-9° 41' 50"
Sunlit
Object is in daylight
Visualization observer readout
Local Sidereal Time06:37:45
Azimuth53.579° ENE
Elevation-47.723°
Doppler factor1
Orbital elements
Apogee altitude559.358 km
Perigee altitude544.929 km
Semi-major axis6,930.281 km
Eccentricity0.001041
Inclination31.0014°
RAAN83.668°
Arg. of periapsis28.4016°
True anomaly331.66212°
Mean anomaly331.7187°
Eccentric anomaly331.69041°
Mean motion3.76198 °/min
BSTAR0.00043704
Orbital period95.69 mins
Loading maneuver chart data...
Loading historical data...
Loading historical data...
Loading historical data...
Loading historical data...
Loading historical data...
Loading historical data...
Loading historical data...

ASTRO H Visibility forecast

Observer location: undefined°, undefined

Span
Click to sort rows by Start time (UTC) header in descending order
Start Az.
Max El. time (UTC)
Max El. Az.
Max El.
End time (UTC)
End Az.
4 mins2024-12-04 11:34:35.760Z197.96° SSW2024-12-04 11:36:35.760Z164.336° S16.481°2024-12-04 11:38:35.760Z131.891° SE
4 mins2024-12-04 13:15:35.760Z212.116° SW2024-12-04 13:17:35.760Z169.629° S21.215°2024-12-04 13:19:35.760Z135.285° SSE
|